When you browse on this site, cookies collect data to enhance your experience and personalize the content and advertising you see.
Visit our Privacy Policy to learn more. By continuing to use the site, you agree to this use of cookies and data.
  • In Germany
  • List of Countries
  • For 7 days
  • Water Temperature
  • Weather Map
  • Weather Widgets
  • user-avatar
    Login

    Hourly Weather Golyshkina

    Today, 15 October, Tuesday

    Time Temperature Precipitation Wind Pressure Humidity
    00:00 +5°C° 0 mm 6 mps 740 mmHg 80%
    01:00 +5°C° 0 mm 6 mps 740 mmHg 80%
    02:00 +5°C° 0 mm 6 mps 740 mmHg 79%
    03:00 +4°C° 0 mm 6 mps 740 mmHg 79%
    04:00 +5°C° 0 mm 5 mps 741 mmHg 78%
    05:00 +5°C° 0 mm 5 mps 741 mmHg 79%
    06:00 +5°C° 0 mm 5 mps 741 mmHg 80%
    07:00 +5°C° 0 mm 5 mps 741 mmHg 80%
    08:00 +5°C° 0 mm 5 mps 742 mmHg 78%
    09:00 +5°C° 0 mm 6 mps 742 mmHg 75%
    10:00 +5°C° 0 mm 6 mps 742 mmHg 72%
    11:00 +7°C° 0.1 mm 6 mps 742 mmHg 71%
    12:00 +7°C° 0.1 mm 5 mps 742 mmHg 69%
    13:00 +7°C° 0.1 mm 5 mps 742 mmHg 68%
    14:00 +6°C° 0 mm 4 mps 742 mmHg 71%
    15:00 +6°C° 0 mm 4 mps 742 mmHg 74%
    16:00 +5°C° 0 mm 3 mps 742 mmHg 77%
    17:00 +5°C° 0 mm 3 mps 742 mmHg 80%
    18:00 +5°C° 0 mm 2 mps 741 mmHg 83%
    19:00 +4°C° 0 mm 2 mps 741 mmHg 86%
    20:00 +4°C° 0 mm 2 mps 741 mmHg 87%
    21:00 +4°C° 0 mm 2 mps 741 mmHg 88%
    22:00 +3°C° 0 mm 2 mps 741 mmHg 89%
    23:00 +3°C° 0 mm 2 mps 741 mmHg 90%

    Tomorrow, 16 October, Wednesday

    Time Temperature Precipitation Wind Pressure Humidity
    00:00 +2°C° 0 mm 3 mps 741 mmHg 92%
    01:00 +1°C° 0 mm 3 mps 741 mmHg 93%
    02:00 +1°C° 0 mm 3 mps 742 mmHg 92%
    03:00 0°C° 0 mm 4 mps 742 mmHg 92%
    04:00 -1°C° 0 mm 4 mps 743 mmHg 91%
    05:00 -1°C° 0 mm 4 mps 743 mmHg 91%
    06:00 -1°C° 0 mm 4 mps 743 mmHg 90%
    07:00 -1°C° 0 mm 4 mps 743 mmHg 90%
    08:00 -1°C° 0 mm 5 mps 744 mmHg 92%
    09:00 0°C° 0 mm 5 mps 744 mmHg 93%
    10:00 0°C° 0 mm 5 mps 744 mmHg 94%
    11:00 0°C° 0.2 mm 5 mps 745 mmHg 95%
    12:00 0°C° 0.2 mm 5 mps 745 mmHg 95%
    13:00 0°C° 0.2 mm 5 mps 746 mmHg 95%
    14:00 0°C° 0.1 mm 5 mps 746 mmHg 93%
    15:00 +1°C° 0.1 mm 5 mps 747 mmHg 90%
    16:00 +1°C° 0.1 mm 5 mps 747 mmHg 87%
    17:00 0°C° 0 mm 5 mps 748 mmHg 87%
    18:00 0°C° 0 mm 5 mps 748 mmHg 86%
    19:00 0°C° 0 mm 4 mps 748 mmHg 85%
    20:00 0°C° 0 mm 5 mps 749 mmHg 85%
    21:00 0°C° 0 mm 5 mps 749 mmHg 85%
    22:00 -1°C° 0 mm 5 mps 750 mmHg 86%
    23:00 -1°C° 0 mm 5 mps 750 mmHg 86%

    Day after tomorrow, 17 October, Thursday

    Time Temperature Precipitation Wind Pressure Humidity
    00:00 -1°C° 0 mm 5 mps 751 mmHg 87%
    01:00 -1°C° 0 mm 5 mps 751 mmHg 87%
    02:00 -1°C° 0 mm 5 mps 752 mmHg 86%
    03:00 -2°C° 0 mm 5 mps 752 mmHg 86%
    04:00 -2°C° 0 mm 5 mps 752 mmHg 85%
    05:00 -2°C° 0 mm 5 mps 753 mmHg 84%
    06:00 -2°C° 0 mm 4 mps 753 mmHg 84%
    07:00 -2°C° 0 mm 4 mps 754 mmHg 83%
    08:00 -1°C° 0 mm 4 mps 754 mmHg 80%
    09:00 -1°C° 0 mm 4 mps 754 mmHg 77%
    10:00 0°C° 0 mm 5 mps 754 mmHg 74%
    11:00 0°C° 0 mm 5 mps 754 mmHg 72%
    12:00 +1°C° 0 mm 4 mps 754 mmHg 70%
    13:00 +1°C° 0 mm 4 mps 754 mmHg 68%
    14:00 +1°C° 0 mm 4 mps 754 mmHg 69%
    15:00 0°C° 0 mm 4 mps 754 mmHg 70%
    16:00 +1°C° 0 mm 3 mps 754 mmHg 71%
    17:00 +1°C° 0 mm 3 mps 754 mmHg 73%
    18:00 +1°C° 0 mm 2 mps 754 mmHg 76%
    19:00 +1°C° 0 mm 2 mps 753 mmHg 78%
    20:00 +1°C° 0.1 mm 2 mps 753 mmHg 84%
    21:00 -1°C° 0.1 mm 2 mps 753 mmHg 89%
    22:00 -1°C° 0.1 mm 3 mps 752 mmHg 95%
    23:00 -1°C° 0.2 mm 3 mps 751 mmHg 96%

    18 October, Friday

    Time Temperature Precipitation Wind Pressure Humidity
    00:00 -1°C° 0.2 mm 3 mps 750 mmHg 96%
    01:00 -1°C° 0.2 mm 3 mps 750 mmHg 97%
    02:00 -1°C° 0.5 mm 3 mps 749 mmHg 97%
    03:00 -1°C° 0.5 mm 3 mps 748 mmHg 97%
    04:00 -2°C° 0.5 mm 4 mps 747 mmHg 97%
    05:00 -1°C° 0.3 mm 3 mps 747 mmHg 97%
    06:00 -1°C° 0.3 mm 3 mps 746 mmHg 97%
    07:00 0°C° 0.3 mm 3 mps 745 mmHg 97%
    08:00 -1°C° 0.8 mm 4 mps 745 mmHg 98%
    09:00 -1°C° 0.8 mm 5 mps 745 mmHg 98%
    10:00 -2°C° 0.8 mm 5 mps 745 mmHg 98%
    11:00 -3°C° 0.8 mm 6 mps 745 mmHg 98%
    12:00 -3°C° 0.8 mm 6 mps 746 mmHg 97%
    13:00 -3°C° 0.8 mm 7 mps 747 mmHg 97%
    14:00 -3°C° 0.2 mm 7 mps 748 mmHg 94%
    15:00 -3°C° 0.2 mm 7 mps 749 mmHg 90%
    16:00 -3°C° 0.2 mm 7 mps 750 mmHg 87%
    17:00 -4°C° 0 mm 7 mps 751 mmHg 87%
    18:00 -4°C° 0 mm 7 mps 753 mmHg 87%
    19:00 -5°C° 0 mm 6 mps 754 mmHg 87%
    20:00 -5°C° 0 mm 6 mps 755 mmHg 86%
    21:00 -6°C° 0 mm 5 mps 755 mmHg 84%
    22:00 -6°C° 0 mm 5 mps 756 mmHg 83%
    23:00 -7°C° 0 mm 4 mps 757 mmHg 84%

    19 October, Saturday

    Time Temperature Precipitation Wind Pressure Humidity
    00:00 -7°C° 0 mm 4 mps 757 mmHg 86%
    01:00 -6°C° 0 mm 3 mps 758 mmHg 87%
    02:00 -6°C° 0 mm 3 mps 759 mmHg 89%
    03:00 -7°C° 0 mm 3 mps 759 mmHg 90%
    04:00 -7°C° 0 mm 3 mps 760 mmHg 92%
    05:00 -7°C° 0 mm 3 mps 760 mmHg 92%
    06:00 -6°C° 0 mm 2 mps 761 mmHg 91%
    07:00 -7°C° 0 mm 2 mps 761 mmHg 91%
    08:00 -6°C° 0 mm 2 mps 761 mmHg 87%
    09:00 -5°C° 0 mm 2 mps 762 mmHg 82%
    10:00 -4°C° 0 mm 2 mps 762 mmHg 78%
    11:00 -3°C° 0 mm 2 mps 762 mmHg 76%
    12:00 -3°C° 0 mm 2 mps 762 mmHg 73%
    13:00 -2°C° 0 mm 2 mps 762 mmHg 71%
    14:00 -3°C° 0 mm 2 mps 762 mmHg 75%
    15:00 -3°C° 0 mm 2 mps 762 mmHg 78%
    16:00 -3°C° 0 mm 2 mps 763 mmHg 82%
    17:00 -4°C° 0 mm 2 mps 763 mmHg 83%
    18:00 -4°C° 0 mm 2 mps 763 mmHg 85%
    19:00 -5°C° 0 mm 2 mps 763 mmHg 86%
    20:00 -5°C° 0 mm 2 mps 763 mmHg 86%
    21:00 -6°C° 0 mm 3 mps 763 mmHg 86%
    22:00 -6°C° 0 mm 3 mps 763 mmHg 86%
    23:00 -6°C° 0 mm 3 mps 763 mmHg 86%

    20 October, Sunday

    Time Temperature Precipitation Wind Pressure Humidity
    00:00 -6°C° 0 mm 3 mps 763 mmHg 86%
    01:00 -6°C° 0 mm 3 mps 763 mmHg 86%
    02:00 -6°C° 0 mm 3 mps 763 mmHg 85%
    03:00 -6°C° 0 mm 3 mps 763 mmHg 85%
    04:00 -6°C° 0 mm 3 mps 763 mmHg 84%
    05:00 -6°C° 0 mm 3 mps 763 mmHg 85%
    06:00 -6°C° 0 mm 3 mps 762 mmHg 85%
    07:00 -6°C° 0 mm 3 mps 762 mmHg 86%
    08:00 -5°C° 0 mm 3 mps 762 mmHg 83%
    09:00 -4°C° 0 mm 4 mps 762 mmHg 81%
    10:00 -3°C° 0 mm 4 mps 762 mmHg 79%
    11:00 -2°C° 0 mm 4 mps 762 mmHg 79%
    12:00 -2°C° 0 mm 4 mps 762 mmHg 80%
    13:00 -1°C° 0 mm 4 mps 762 mmHg 81%
    14:00 -1°C° 0 mm 4 mps 761 mmHg 82%
    15:00 -1°C° 0 mm 4 mps 761 mmHg 82%
    16:00 -2°C° 0 mm 4 mps 761 mmHg 83%
    17:00 -2°C° 0 mm 4 mps 761 mmHg 84%
    18:00 -3°C° 0 mm 4 mps 761 mmHg 84%
    19:00 -3°C° 0 mm 4 mps 761 mmHg 85%
    20:00 -4°C° 0 mm 4 mps 761 mmHg 85%
    21:00 -4°C° 0 mm 4 mps 761 mmHg 84%
    22:00 -4°C° 0 mm 4 mps 761 mmHg 84%
    23:00 -4°C° 0 mm 4 mps 761 mmHg 85%
    Show more